Stevensville, MD

5:43 AM EDT on June 23, 2017 (GMT -0400)
Stevensville

Weather History for KW29 - November, 2012

Change the Weather History Date:

Sunday, November 11, 2012

  Actual Average (KESN) Record (KESN)
Temperature  
Mean Temperature 53 °F -  
Max Temperature 64 °F 59 °F 73 °F (2006)
Min Temperature 42 °F 39 °F 21 °F (1973)
Degree Days  
Heating Degree Days 12    
Growing Degree Days 3 (Base 50)    
Moisture  
Dew Point 44 °F    
Average Humidity 73    
Maximum Humidity 100    
Minimum Humidity 48    
Precipitation  
Precipitation 0.00 in - - ()
Sea Level Pressure  
Sea Level Pressure 30.42 in    
Wind  
Wind Speed 5 mph (SE)    
Max Wind Speed 12 mph    
Max Gust Speed -    
Visibility 10 miles    
Events      
Averages and records for this station are not official NWS values.
T = Trace of Precipitation, MM = Missing Value Source: NWS Daily Summary

Daily Weather History Graph

Daily Weather History Graph

Search for Another Location

Airport or City:

Trip Planner

Search our weather history database for the weather conditions in past years. The results will help you decide how hot, cold, wet, or windy it might be!

Date:

Astronomy

Nov. 11, 2012 Rise Set
Actual Time 6:44 AM EST 4:54 PM EST
Civil Twilight 6:15 AM EST 5:22 PM EST
Nautical Twilight 5:43 AM EST 5:54 PM EST
Astronomical Twilight 5:12 AM EST 6:25 PM EST
Moon 3:56 AM EST (11/11) 3:15 PM EST (11/11)
Length of Visible Light 11h 06m
Length of Day
10h 09m
Waning Crescent, 7% of the Moon is Illuminated
Nov 11
Waning Crescent
Nov 13
New
Nov 20
First Quarter
Nov 28
Full
Dec 6
Last Quarter

Hourly Weather History & Observations

Time (EST) Temp. Windchill Dew Point Humidity Pressure Visibility Wind Dir Wind Speed Gust Speed Precip Events Conditions
12:15 AM 46.4 °F 44.3 °F 42.8 °F 87% 30.38 in 10.0 mi SSE 4.6 mph - N/A   Clear
12:37 AM 48.2 °F - 42.8 °F 82% 30.38 in 10.0 mi SE 5.8 mph - N/A   Clear
12:58 AM 46.4 °F 43.5 °F 42.8 °F 87% 30.38 in 10.0 mi SE 5.8 mph - N/A   Clear
1:19 AM 46.4 °F 44.3 °F 42.8 °F 87% 30.38 in 10.0 mi SE 4.6 mph - N/A   Clear
1:40 AM 46.4 °F 44.3 °F 42.8 °F 87% 30.37 in 10.0 mi SE 4.6 mph - N/A   Clear
2:02 AM 46.4 °F 45.2 °F 42.8 °F 87% 30.38 in 10.0 mi ESE 3.5 mph - N/A   Clear
2:23 AM 46.4 °F 45.2 °F 44.6 °F 93% 30.38 in 10.0 mi SE 3.5 mph - N/A   Clear
2:44 AM 46.4 °F 43.5 °F 44.6 °F 93% 30.38 in 10.0 mi SE 5.8 mph - N/A   Clear
3:05 AM 46.4 °F 43.5 °F 44.6 °F 93% 30.38 in 10.0 mi SSE 5.8 mph - N/A   Clear
3:27 AM 46.4 °F 43.5 °F 44.6 °F 93% 30.38 in 10.0 mi SE 5.8 mph - N/A   Clear
3:48 AM 46.4 °F 44.3 °F 44.6 °F 93% 30.38 in 10.0 mi SSE 4.6 mph - N/A   Clear
4:09 AM 46.4 °F 43.5 °F 44.6 °F 93% 30.38 in 10.0 mi SSE 5.8 mph - N/A   Clear
4:30 AM 46.4 °F 45.2 °F 44.6 °F 93% 30.40 in 10.0 mi SSE 3.5 mph - N/A   Clear
4:52 AM 44.6 °F - 44.6 °F 100% 30.41 in 10.0 mi Calm Calm - N/A   Clear
5:13 AM 46.4 °F - 44.6 °F 93% 30.41 in 10.0 mi Calm Calm - N/A   Clear
5:34 AM 44.6 °F - 44.6 °F 100% 30.41 in 10.0 mi Calm Calm - N/A   Clear
5:56 AM 42.8 °F - 42.8 °F 100% 30.42 in 10.0 mi Calm Calm - N/A   Clear
6:38 AM 44.6 °F - 44.6 °F 100% 30.43 in 10.0 mi Calm Calm - N/A   Clear
7:20 AM 42.8 °F 41.1 °F 42.8 °F 100% 30.46 in 10.0 mi ESE 3.5 mph - N/A   Clear
8:24 AM 50.0 °F - 44.6 °F 82% 30.47 in 10.0 mi SE 5.8 mph - N/A   Clear
8:45 AM 51.8 °F - 44.6 °F 76% 30.47 in 10.0 mi SE 5.8 mph - N/A   Clear
9:49 AM 53.6 °F - 44.6 °F 72% 30.47 in 10.0 mi SSE 5.8 mph - N/A   Clear
10:10 AM 55.4 °F - 44.6 °F 67% 30.47 in 10.0 mi SSE 5.8 mph - N/A   Clear
10:32 AM 57.2 °F - 44.6 °F 63% 30.47 in 10.0 mi SSE 5.8 mph - N/A   Clear
10:53 AM 59.0 °F - 42.8 °F 55% 30.47 in 10.0 mi SSE 6.9 mph - N/A   Clear
11:14 AM 59.0 °F - 42.8 °F 55% 30.47 in 10.0 mi SSE 6.9 mph - N/A   Clear
11:35 AM 59.0 °F - 42.8 °F 55% 30.46 in 10.0 mi SE 8.1 mph - N/A   Clear
11:56 AM 60.8 °F - 42.8 °F 52% 30.45 in 10.0 mi SE 6.9 mph - N/A   Clear
12:18 PM 60.8 °F - 44.6 °F 55% 30.44 in 10.0 mi SSE 5.8 mph - N/A   Clear
12:39 PM 62.6 °F - 44.6 °F 52% 30.43 in 10.0 mi SE 5.8 mph - N/A   Clear
1:21 PM 62.6 °F - 46.4 °F 55% 30.42 in 10.0 mi SE 9.2 mph - N/A   Clear
1:43 PM 62.6 °F - 46.4 °F 55% 30.41 in 10.0 mi SSE 6.9 mph - N/A   Clear
2:04 PM 64.4 °F - 46.4 °F 52% 30.41 in 10.0 mi SSE 6.9 mph - N/A   Clear
2:25 PM 64.4 °F - 46.4 °F 52% 30.41 in 10.0 mi SSE 5.8 mph - N/A   Clear
2:46 PM 64.4 °F - 44.6 °F 49% 30.41 in 10.0 mi SSE 5.8 mph - N/A   Clear
3:08 PM 64.4 °F - 44.6 °F 49% 30.41 in 10.0 mi SSE 6.9 mph - N/A   Clear
3:29 PM 64.4 °F - 44.6 °F 49% 30.41 in 10.0 mi SE 8.1 mph - N/A   Clear
3:50 PM 62.6 °F - 42.8 °F 48% 30.41 in 10.0 mi SE 8.1 mph - N/A   Clear
4:11 PM 62.6 °F - 42.8 °F 48% 30.41 in 10.0 mi SSE 9.2 mph - N/A   Clear
4:33 PM 60.8 °F - 42.8 °F 52% 30.42 in 10.0 mi SSE 8.1 mph - N/A   Clear
4:54 PM 60.8 °F - 44.6 °F 55% 30.42 in 10.0 mi SE 9.2 mph - N/A   Clear
5:15 PM 59.0 °F - 42.8 °F 55% 30.42 in 10.0 mi SE 11.5 mph - N/A   Clear
5:36 PM 57.2 °F - 42.8 °F 59% 30.43 in 10.0 mi SSE 6.9 mph - N/A   Clear
5:58 PM 59.0 °F - 42.8 °F 55% 30.44 in 10.0 mi SE 8.1 mph - N/A   Clear
6:19 PM 55.4 °F - 42.8 °F 63% 30.44 in 10.0 mi SSE 6.9 mph - N/A   Clear
6:40 PM 55.4 °F - 42.8 °F 63% 30.44 in 10.0 mi SE 8.1 mph - N/A   Clear
7:01 PM 55.4 °F - 44.6 °F 67% 30.44 in 10.0 mi SSE 8.1 mph - N/A   Clear
7:23 PM 53.6 °F - 44.6 °F 72% 30.45 in 10.0 mi SE 8.1 mph - N/A   Clear
7:44 PM 53.6 °F - 46.4 °F 77% 30.45 in 10.0 mi SE 8.1 mph - N/A   Clear
8:05 PM 53.6 °F - 46.4 °F 77% 30.45 in 10.0 mi SSE 9.2 mph - N/A   Clear
8:47 PM 53.6 °F - 46.4 °F 77% 30.45 in 10.0 mi SSE 6.9 mph - N/A   Clear
9:09 PM 53.6 °F - 44.6 °F 72% 30.45 in 10.0 mi SSE 8.1 mph - N/A   Clear
9:30 PM 51.8 °F - 44.6 °F 76% 30.45 in 10.0 mi SE 9.2 mph - N/A   Clear
9:51 PM 51.8 °F - 44.6 °F 76% 30.45 in 10.0 mi SE 6.9 mph - N/A   Clear
10:13 PM 51.8 °F - 46.4 °F 82% 30.45 in 10.0 mi SSE 5.8 mph - N/A   Clear
10:34 PM 50.0 °F - 46.4 °F 87% 30.44 in 10.0 mi SSE 5.8 mph - N/A   Clear
10:55 PM 51.8 °F - 46.4 °F 82% 30.44 in 10.0 mi SSE 6.9 mph - N/A   Clear
11:17 PM 51.8 °F - 48.2 °F 88% 30.44 in 10.0 mi SSE 6.9 mph - N/A   Clear
11:59 PM 51.8 °F - 50.0 °F 94% 30.44 in 10.0 mi SSE 8.1 mph - N/A   Clear